Weather History for Medicine Lodge, KS

Change the Weather History Date:

Sunday, February 17, 2013

  Actual Average Record
Temperature  
Mean Temperature 47 °F 39 °F  
Max Temperature 69 °F 51 °F 82 °F (1970)
Min Temperature 24 °F 26 °F -5 °F (1903)
Degree Days  
Heating Degree Days 18 26  
Month to date heating degree days 440 481  
Since 1 July heating degree days 2878 3258  
Cooling Degree Days 0 0  
Month to date cooling degree days 0 0  
Year to date cooling degree days 0 0  
Moisture  
Dew Point 27 °F    
Average Humidity 55    
Maximum Humidity 92    
Minimum Humidity 17    
Precipitation  
Precipitation 0.00 in 0.03 in 1.51 in (1911)
Month to date precipitation 0.25 0.54  
Year to date precipitation 0.81 1.25  
Snow  
Snow 0.00 in 0.10 in - ()
Month to date snowfall 0.0 1.7  
Since 1 July snowfall 1.0 7.9  
Snow Depth -    
Sea Level Pressure  
Sea Level Pressure 29.80 in    
Wind  
Wind Speed 9 mph (South)    
Max Wind Speed 24 mph    
Max Gust Speed 32 mph    
T = Trace of Precipitation, MM = Missing Value Source: NWS Daily Summary

Daily Weather History Graph

Daily Weather History Graph

Search for Another Location

Airport:

Trip Planner

Search our weather history database for the weather conditions in past years. The results will help you decide how hot, cold, wet, or windy it might be!

Date:

Astronomy

Feb. 17, 2013 Rise Set
Actual Time 7:20 AM CST 6:16 PM CST
Civil Twilight 6:53 AM CST 6:42 PM CST
Nautical Twilight 6:23 AM CST 7:13 PM CST
Astronomical Twilight 5:53 AM CST 7:43 PM CST
Moon 11:24 AM CST (2/17) 1:03 AM CST (2/17)
Length of Visible Light 11h 49m
Length of Day
10h 55m
Waxing Crescent, 49% of the Moon is Illuminated
Feb 17
Waxing Crescent
Feb 17
First Quarter
Feb 25
Full
Mar 4
Last Quarter
Mar 11
New

Hourly Weather History & Observations

Time (CST) Temp. Windchill Dew Point Humidity Pressure Visibility Wind Dir Wind Speed Gust Speed Precip Events Conditions
12:56 AM 30.0 °F 24.1 °F 28.0 °F 92% 30.01 in - SSW 5.8 mph - N/A   Unknown
1:56 AM 28.0 °F 22.8 °F 25.0 °F 88% 30.00 in - NNE 4.6 mph - N/A   Unknown
2:56 AM 27.0 °F 23.0 °F 25.0 °F 92% 29.99 in - NNE 3.5 mph - N/A   Unknown
3:56 AM 26.1 °F 21.9 °F 24.1 °F 92% 29.96 in - North 3.5 mph - N/A   Unknown
4:56 AM 26.1 °F 20.5 °F 24.1 °F 92% 29.96 in - NNE 4.6 mph - N/A   Unknown
5:56 AM 28.0 °F - 25.0 °F 88% 29.97 in - Calm Calm - N/A   Unknown
6:56 AM 26.1 °F - 24.1 °F 92% 29.96 in - Calm Calm - N/A   Unknown
7:56 AM 26.1 °F 21.9 °F 23.0 °F 88% 29.94 in - North 3.5 mph - N/A   Unknown
8:56 AM 34.0 °F 31.0 °F 28.9 °F 82% 29.94 in - SSW 3.5 mph - N/A   Unknown
9:56 AM 41.0 °F 37.1 °F 30.9 °F 67% 29.93 in - South 5.8 mph - N/A   Unknown
10:56 AM 48.9 °F - 30.9 °F 50% 29.90 in - South 8.1 mph - N/A   Unknown
11:56 AM 55.0 °F - 28.9 °F 37% 29.86 in - South 4.6 mph - N/A   Unknown
12:56 PM 60.1 °F - 28.9 °F 31% 29.81 in - South 11.5 mph 17.3 mph N/A   Unknown
1:56 PM 64.0 °F - 30.0 °F 28% 29.75 in - South 15.0 mph - N/A   Unknown
2:56 PM 66.9 °F - 28.9 °F 24% 29.71 in - South 17.3 mph - N/A   Unknown
3:56 PM 69.1 °F - 25.0 °F 19% 29.68 in - South 20.7 mph 26.5 mph N/A   Unknown
4:56 PM 68.0 °F - 23.0 °F 18% 29.65 in - South 25.3 mph 29.9 mph N/A   Unknown
5:56 PM 62.1 °F - 26.1 °F 25% 29.65 in - South 16.1 mph 26.5 mph N/A   Unknown
6:56 PM 57.0 °F - 28.0 °F 33% 29.66 in - South 10.4 mph - N/A   Unknown
7:56 PM 53.1 °F - 28.0 °F 38% 29.65 in - SSE 9.2 mph - N/A   Unknown
8:56 PM 52.0 °F - 28.0 °F 40% 29.62 in - SSE 8.1 mph - N/A   Unknown
9:56 PM 51.1 °F - 28.0 °F 41% 29.59 in - SSE 9.2 mph - N/A   Unknown
10:56 PM 50.0 °F - 28.9 °F 44% 29.57 in - South 11.5 mph - N/A   Unknown
11:56 PM 50.0 °F - 28.0 °F 43% 29.53 in - South 12.7 mph - N/A   Unknown